Regional Weather Roundup
Issued by NWS

Home | Current Version | Previous Version | Text Only | Print | Product List | Glossary On
Versions: 1 2 3 4 5 6 7 8 9 10 11 12 13 14 15 16 17 18 19 20 21 22 23 24 25 26 27 28 29 30 31 32 33 34 35 36 37 38 39 40 41 42 43 44 45 46 47 48 49 50
000
ASHW40 PHFO 040432
RWRHI

WEATHER ROUNDUP FOR HAWAII
NATIONAL WEATHER SERVICE HONOLULU HI
600 PM HST SAT DEC 03 2016

THIS IS AN AUTOMATED REPORT THAT HAS NOT BEEN QUALITY CONTROLLED.

NOTE..."FAIR" INDICATES FEW OR NO CLOUDS BELOW 12,000 FEET WITH NO
SIGNIFICANT WEATHER AND/OR OBSTRUCTIONS TO VISIBILITY.

* - THESE SITES REPORT LIMITED FIELDS

HIZ001>004-040500-
KAUAI-NIIHAU-

CITY           SKY/WX    TMP DP  RH WIND       PRES   REMARKS
LIHUE APT      CLOUDY    72  65  78 W8        29.86F
PORT ALLEN*      N/A     75 N/A N/A NE5         N/A
POIPU*           N/A     75 N/A N/A NW3         N/A
PRINCEVILLE*     N/A     68 N/A N/A SW5         N/A
KOKOLE POINT*  NOT AVBL
MOLOAA DAIRY*    N/A     70  63  78 NW3         N/A
WAIMEA HTS*    NOT AVBL
PUU OPAE*      NOT AVBL
PUU LUA*       NOT AVBL
MAKAHA RIDGE*    N/A    N/A N/A N/A S1          N/A
$$

HIZ005>011-040500-
OAHU-

CITY           SKY/WX    TMP DP  RH WIND       PRES   REMARKS
HONOLULU       MOCLDY    73  67  81 NE3       29.83S
KALAELOA       CLOUDY    76  64  66 CALM      29.85R
KANEOHE MCB    NOT AVBL
WHEELER FIELD  PTCLDY    72  67  84 CALM      29.87
BELLOWS*         N/A    N/A N/A N/A W3          N/A
KAHUKU*          N/A    N/A N/A N/A NE1         N/A
WHEELER*       NOT AVBL
WAIANAE HARBOR NOT AVBL
DILLINGHAM*      N/A     86  77  74 MISG        N/A  HX  97
KAHUKU TRN*      N/A     72  68  88 CALM        N/A
KAWAILOA*        N/A     72  66  83 SE3         N/A
KII*             N/A     75  70  83 SE2         N/A
MAKUA RANGE*     N/A     79  66  65 SW3G9       N/A
OAHU FOREST NW NOT AVBL
SCHOFIELD BRK*   N/A     70  66  88 MISG        N/A
SCHOFIELD S*   NOT AVBL
WAIANAE VLY*   NOT AVBL
KUAOKALA*      NOT AVBL
HONOULIUULI*   NOT AVBL
MOKUOLOE IS*   NOT AVBL
PALEHUA*       NOT AVBL
WAIAWA PHB*    NOT AVBL
$$

HIZ012>013-040500-
MOLOKAI-

CITY           SKY/WX    TMP DP  RH WIND       PRES   REMARKS
MOLOKAI AIRPT  PTCLDY    76  69  79 NW3       29.85R
KALAUPAPA      NOT AVBL
MAKAPULAPAI*     N/A     75  68  78 W7          N/A
MOLOKAI 1*     NOT AVBL
PUU ALII*        N/A     60  60  98 SE1G7       N/A
$$

HIZ016-040500-
KAHOOLAWE-

CITY           SKY/WX    TMP DP  RH WIND       PRES   REMARKS
KAHOOLAWE*     NOT AVBL
HAKIOAWA*        N/A     71  68  91 MISG      30.27S
HONOKANAIA*      N/A     79  69  72 SW9       29.78R
KANELOA*         N/A     73  70  88 E3          N/A
KEALIALALO*    NOT AVBL
LUA MAKIKA*    NOT AVBL
$$

HIZ014>015-040500-
LANAI-

CITY           SKY/WX    TMP DP  RH WIND       PRES   REMARKS
LANAI CITY     CLOUDY    72  68  88 W10       29.91R
LANAI 1*       NOT AVBL
$$

HIZ017>028-040500-
MAUI-

CITY           SKY/WX    TMP DP  RH WIND       PRES   REMARKS
KAHULUI        PTCLDY    78  69  73 S15       29.82R
KAPALUA-W MAUI PTCLDY    77  68  73 SW6       29.83
HANA AIRPORT   MOCLDY    72  70  94 S3        29.86R
HANA*            N/A     73 N/A N/A E7          N/A
HALEAKALA SUMM   N/A     41  41 100 S8          N/A
MAALAEA BAY*     N/A     77 N/A N/A SW13G20     N/A
HALEAKALA*     NOT AVBL
KAUPO GAP*     NOT AVBL
KULA 1*          N/A     53  51  94 S3          N/A
$$

HIZ023>026-040500-
BIG ISLAND OF HAWAII COAST AND LOWER SLOPES-

CITY           SKY/WX    TMP DP  RH WIND       PRES   REMARKS
KAILUA KONA    MOCLDY    79  72  79 SW8       29.85R
HILO           CLOUDY    73  71  93 SE6       29.84R
HONOKAA*         N/A     70 N/A N/A VRB1        N/A
KAWAIHAE MWT*    N/A     79 N/A N/A SW7         N/A
KAWAIHAE*        N/A     79 N/A N/A SW9       29.85R
SOUTH POINT*     N/A     72 N/A N/A SE1         N/A
UPOLU AIRPORT* NOT AVBL
KAMUELA*       CLOUDY    66  64  94 SW6       29.97R
HAKALAU*         N/A     52  51  95 W1          N/A
KALOKO-HONOKO*   N/A     79  70  73 SW5       29.86R
PALI 2*          N/A     64  64 100 N2          N/A
KEALAKOMO*       N/A     75  72  88 S3          N/A
KAUPULEHU*     NOT AVBL
KAPAPALA*        N/A     69  68  96 S2          N/A
LOWER KAHUKU*    N/A     63  63 100 W2G8        N/A
PUHE CS*         N/A     79  70  73 SW2         N/A
PUHO CS*         N/A     79  67  66 W2          N/A
PTA KEAMUKU*     N/A     64  63  94 CALM        N/A
WAIKOLOA*      NOT AVBL
$$

HIZ027>028-040500-
BIG ISLAND OF HAWAII INTERIOR AND SUMMMITS-

CITY           SKY/WX    TMP DP  RH WIND       PRES   REMARKS
BRADSHAW FIELD NOT AVBL
MK VISITOR CEN   N/A     46  37  71 N16         N/A
MAUNA KEA*       N/A     28  23  80 SW37        N/A  WCI  11
MAUNA LOA*       N/A    N/A N/A N/A MISG        N/A
MAUNA LOA 1*   NOT AVBL
PTA KIPUKA*      N/A     57  55  94 S2          N/A
PTA RANGE 17*    N/A     61  57  88 NW1G9       N/A
PTA WEST*        N/A     70  66  88 CALM        N/A
NENE CABIN*      N/A     55  54  94 SW5G12      N/A
AHUMOA*        NOT AVBL
PTA PORTABLE*  NOT AVBL
PUU MALI*        N/A     54  50  87 W2G14       N/A
$$

HIC003-040500-
NORTHWEST ISLANDS-

CITY           SKY/WX    TMP DP  RH WIND       PRES   REMARKS
MIDWAY ISLAND  NOT AVBL
MIDWAY NOS*      N/A     70 N/A N/A MISG      30.17F
FRENCH FRIGATE NOT AVBL
$$

PHZ110>124-180-040500-
BUOY REPORTS

STATION/POSITION TIME  TEMP    WIND        PRES    WAVE   SWELL
                       AIR SEA DIR/SP/G            HT/PER HT/DIR
                 (UTC) (F)     (DEG/KT/KT) (MB)    (FT/S) (FT/D)
BUOY 51001       0410   75 78   30/  6/  8 1010.5
BUOY 51101       0350   75 78  360/  4/  6 1011.1R  12/11  11/ 30
BUOY 51100       NOT AVBL
BUOY 51002       0410   77 79   60/  4/  8 1010.5
BUOY 51003       0350   76 80   90/  6/  6 1010.7R   8/14   8/310
BUOY 51004       0350   77 79  150/ 10/ 12 1011.8R  10/10  10/ 90
BARBERS PT BUOY  NOT AVBL
WAIMEA BAY BUOY  NOT AVBL
KAILUA BAY BUOY  0404      78                N/A     7/11   3/ 80
LANAI BUOY       0415      78                N/A     3/14   2/260
BARBERS PT 2     0409      79                N/A     5/13   3/260
PAUWELA MAUI     0409      78                N/A     9/11   5/ 80
HILO             0412      77                N/A    11/11   5/100
KANEOHE BAY BUOY 0406      77                N/A     6/10   2/360
HANALEI KAUAI    0352      78                N/A     9/13   7/300
KAHULUI HARBOR   0400   77 76   30/  3/  5 1009.7
HONOLULU HARBOR  0400   76 78   20/  1/  2 1010.9
KILO NALU        NOT AVBL
HILO HARBOR      0400   75 76  130/  6/  8 1010.2
MOKUOLOE         0336   73 75   CALM  /  2 1010.1S
NAWILIWILI       0400   73 78  260/  2/  6 1011.2
WHOTS BUOY       NOT AVBL
BUOY 51028       NOT AVBL
$$

......................KEY........................................
  SKY/WX - SKY CONDITIONS/PRESENT WEATHER
  TMP    - TEMPERATURE IN FAHRENHEIT
  DWPT   - DEWPOINT IN FAHRENHEIT
  RH     - RELATIVE HUMIDITY IN PERCENT
  WIND   - DIRECTION AND SPEED /MPH FOR ISLANDS...KTS FOR BUOYS/
  PRES   - MEAN SEA LEVEL PRESSURE IN INCHES OF HG
  VSB    - VISIBILITY IN MILES
  HX     - HEAT INDEX
  WCI    - WIND CHILL INDEX
  VRB    - VARIABLE WIND DIRECTION
  N/A    - NOT AVAILABLE



USA.gov is the U.S. government's official web portal to all federal, state and local government web resources and services.